Time,TemperatureF,DewpointF,PressureIn,WindDirection,WindDirectionDegrees,WindSpeedMPH,WindSpeedGustMPH,Humidity,HourlyPrecipIn,Conditions,Clouds,dailyrainin,SoftwareType,DateUTC
2013-07-02 00:00:00,61.3,50.7,29.99,NE,45,0.0,1.1,68,0.00,CLR,SKC,0.00,WeatherDisplay:10.37,2013-07-01 23:00:00,
2013-07-02 00:05:00,61.3,50.7,29.99,NE,45,0.0,1.1,68,0.00,CLR,SKC,0.00,WeatherDisplay:10.37,2013-07-01 23:05:00,
2013-07-02 00:10:00,61.0,50.7,29.99,SE,135,0.0,1.1,69,0.00,CLR,SKC,0.00,WeatherDisplay:10.37,2013-07-01 23:10:00,
2013-07-02 00:15:00,60.8,50.6,29.99,NW,315,0.0,1.1,69,0.00,CLR,SKC,0.00,WeatherDisplay:10.37,2013-07-01 23:15:00,
2013-07-02 00:20:00,60.6,50.8,29.99,NW,315,0.0,1.1,70,0.00,CLR,SKC,0.00,WeatherDisplay:10.37,2013-07-01 23:20:00,
2013-07-02 00:25:00,60.6,50.8,29.99,NW,315,0.0,1.1,70,0.00,CLR,SKC,0.00,WeatherDisplay:10.37,2013-07-01 23:25:00,
2013-07-02 00:30:00,60.4,51.4,29.99,WSW,248,1.6,3.5,72,0.00,CLR,SKC,0.00,WeatherDisplay:10.37,2013-07-01 23:30:00,
2013-07-02 00:35:00,60.4,51.4,29.99,WSW,248,1.6,3.5,72,0.00,CLR,SKC,0.00,WeatherDisplay:10.37,2013-07-01 23:35:00,
2013-07-02 00:40:00,60.1,51.4,29.99,SE,135,0.0,1.1,73,0.00,CLR,SKC,0.00,WeatherDisplay:10.37,2013-07-01 23:40:00,
2013-07-02 00:45:00,60.1,51.4,29.99,SE,135,0.0,1.1,73,0.00,CLR,SKC,0.00,WeatherDisplay:10.37,2013-07-01 23:45:00,
2013-07-02 00:50:00,59.9,51.2,29.99,NE,45,0.0,2.3,73,0.00,CLR,SKC,0.00,WeatherDisplay:10.37,2013-07-01 23:50:00,
2013-07-02 00:55:00,59.9,51.2,29.99,NE,45,0.0,2.3,73,0.00,CLR,SKC,0.00,WeatherDisplay:10.37,2013-07-01 23:55:00,
2013-07-02 01:00:00,59.5,51.2,29.99,North,0,0.0,1.1,74,0.00,CLR,SKC,0.00,WeatherDisplay:10.37,2013-07-02 00:00:00,
2013-07-02 01:05:00,59.5,51.2,29.99,North,0,0.0,1.1,74,0.00,CLR,SKC,0.00,WeatherDisplay:10.37,2013-07-02 00:05:00,
2013-07-02 01:10:00,59.4,51.8,29.98,NW,315,0.0,2.2,76,0.00,CLR,SKC,0.00,WeatherDisplay:10.37,2013-07-02 00:10:00,
2013-07-02 01:15:00,59.4,51.8,29.98,NW,315,0.0,2.2,76,0.00,CLR,SKC,0.00,WeatherDisplay:10.37,2013-07-02 00:15:00,
2013-07-02 01:20:00,59.2,52.0,29.98,NW,315,0.0,1.1,77,0.00,CLR,SKC,0.00,WeatherDisplay:10.37,2013-07-02 00:20:00,
2013-07-02 01:25:00,59.2,52.0,29.98,NW,315,0.0,1.1,77,0.00,CLR,SKC,0.00,WeatherDisplay:10.37,2013-07-02 00:25:00,
2013-07-02 01:30:00,59.0,52.1,29.98,NW,315,0.7,2.2,78,0.00,CLR,SKC,0.00,WeatherDisplay:10.37,2013-07-02 00:30:00,
2013-07-02 01:35:00,59.0,52.1,29.98,NW,315,0.7,2.2,78,0.00,CLR,SKC,0.00,WeatherDisplay:10.37,2013-07-02 00:35:00,
2013-07-02 01:40:00,58.6,51.8,29.99,North,0,0.0,2.3,78,0.00,CLR,SKC,0.00,WeatherDisplay:10.37,2013-07-02 00:40:00,
2013-07-02 01:45:00,58.6,51.8,29.99,North,0,0.0,2.3,78,0.00,CLR,SKC,0.00,WeatherDisplay:10.37,2013-07-02 00:45:00,
2013-07-02 01:50:00,58.5,52.0,29.98,WSW,248,0.0,3.5,79,0.00,CLR,SKC,0.00,WeatherDisplay:10.37,2013-07-02 00:50:00,
2013-07-02 01:55:00,58.5,52.0,29.98,WSW,248,0.0,3.5,79,0.00,CLR,SKC,0.00,WeatherDisplay:10.37,2013-07-02 00:55:00,
2013-07-02 02:41:00,57.6,51.4,29.97,NW,315,0.0,2.3,80,0.00,CLR,SKC,0.00,WeatherDisplay:10.37,2013-07-02 01:41:00,
2013-07-02 02:46:00,57.6,51.4,29.97,NW,315,0.0,2.3,80,0.00,CLR,SKC,0.00,WeatherDisplay:10.37,2013-07-02 01:46:00,
2013-07-02 02:51:00,57.6,51.4,29.97,West,270,0.0,0.0,80,0.00,CLR,SKC,0.00,WeatherDisplay:10.37,2013-07-02 01:51:00,
2013-07-02 02:56:00,57.6,51.4,29.97,West,270,0.0,0.0,80,0.00,CLR,SKC,0.00,WeatherDisplay:10.37,2013-07-02 01:56:00,
2013-07-02 03:01:00,57.4,51.6,29.96,North,0,0.0,3.5,81,0.00,CLR,SKC,0.00,WeatherDisplay:10.37,2013-07-02 02:01:00,
2013-07-02 03:06:00,57.4,51.6,29.96,North,0,0.0,3.5,81,0.00,CLR,SKC,0.00,WeatherDisplay:10.37,2013-07-02 02:06:00,
2013-07-02 03:11:00,57.2,51.4,29.96,North,0,0.7,2.3,81,0.00,CLR,SKC,0.00,WeatherDisplay:10.37,2013-07-02 02:11:00,
2013-07-02 03:16:00,57.2,51.4,29.96,North,0,0.7,2.3,81,0.00,CLR,SKC,0.00,WeatherDisplay:10.37,2013-07-02 02:16:00,
2013-07-02 03:21:00,57.2,51.4,29.96,North,0,0.0,3.5,81,0.00,CLR,SKC,0.00,WeatherDisplay:10.37,2013-07-02 02:21:00,
2013-07-02 03:26:00,57.2,51.4,29.96,North,0,0.0,3.5,81,0.00,CLR,SKC,0.00,WeatherDisplay:10.37,2013-07-02 02:26:00,
2013-07-02 03:31:00,56.8,51.4,29.96,North,0,0.0,1.1,82,0.00,CLR,SKC,0.00,WeatherDisplay:10.37,2013-07-02 02:31:00,
2013-07-02 03:36:00,56.8,51.4,29.96,North,0,0.0,1.1,82,0.00,CLR,SKC,0.00,WeatherDisplay:10.37,2013-07-02 02:36:00,
2013-07-02 03:41:00,56.8,51.4,29.96,West,270,0.7,3.1,82,0.00,CLR,SKC,0.00,WeatherDisplay:10.37,2013-07-02 02:41:00,
2013-07-02 03:46:00,56.8,51.4,29.96,West,270,0.7,3.1,82,0.00,CLR,SKC,0.00,WeatherDisplay:10.37,2013-07-02 02:46:00,
2013-07-02 03:51:00,56.7,51.2,29.96,North,0,0.0,1.1,82,0.00,CLR,SKC,0.00,WeatherDisplay:10.37,2013-07-02 02:51:00,
2013-07-02 03:56:00,56.7,51.2,29.96,North,0,0.0,1.1,82,0.00,CLR,SKC,0.00,WeatherDisplay:10.37,2013-07-02 02:56:00,
2013-07-02 04:02:00,56.5,51.4,29.95,NE,45,0.7,2.3,83,0.00,CLR,SKC,0.00,WeatherDisplay:10.37,2013-07-02 03:02:00,
2013-07-02 04:07:00,56.5,51.4,29.95,NE,45,0.7,2.3,83,0.00,CLR,SKC,0.00,WeatherDisplay:10.37,2013-07-02 03:07:00,
2013-07-02 04:12:00,56.1,51.4,29.95,North,0,0.0,3.5,84,0.00,CLR,SKC,0.00,WeatherDisplay:10.37,2013-07-02 03:12:00,
2013-07-02 04:17:00,56.1,51.4,29.95,North,0,0.0,3.5,84,0.00,CLR,SKC,0.00,WeatherDisplay:10.37,2013-07-02 03:17:00,
2013-07-02 04:22:00,55.9,51.2,29.95,East,90,0.0,1.1,84,0.00,CLR,SKC,0.00,WeatherDisplay:10.37,2013-07-02 03:22:00,
2013-07-02 04:27:00,55.9,51.2,29.95,East,90,0.0,1.1,84,0.00,CLR,SKC,0.00,WeatherDisplay:10.37,2013-07-02 03:27:00,
2013-07-02 04:32:00,55.8,51.0,29.96,NW,315,0.0,2.3,84,0.00,CLR,SKC,0.00,WeatherDisplay:10.37,2013-07-02 03:32:00,
2013-07-02 04:37:00,55.8,51.0,29.96,NW,315,0.0,2.3,84,0.00,CLR,SKC,0.00,WeatherDisplay:10.37,2013-07-02 03:37:00,
2013-07-02 04:42:00,55.6,51.1,29.95,North,0,0.0,3.5,85,0.00,CLR,SKC,0.00,WeatherDisplay:10.37,2013-07-02 03:42:00,
2013-07-02 04:47:00,55.6,51.1,29.95,North,0,0.0,3.5,85,0.00,CLR,SKC,0.00,WeatherDisplay:10.37,2013-07-02 03:47:00,
2013-07-02 04:52:00,55.6,51.1,29.95,North,0,0.7,1.6,85,0.00,CLR,SKC,0.00,WeatherDisplay:10.37,2013-07-02 03:52:00,
2013-07-02 04:57:00,55.6,51.1,29.95,North,0,0.7,1.6,85,0.00,CLR,SKC,0.00,WeatherDisplay:10.37,2013-07-02 03:57:00,
2013-07-02 04:58:00,55.6,51.1,29.95,West,270,0.0,1.6,85,0.00,CLR,SKC,0.00,WeatherDisplay:10.37,2013-07-02 03:58:00,
2013-07-02 05:01:00,55.4,51.3,29.95,NW,315,0.0,1.6,86,0.00,CLR,SKC,0.00,WeatherDisplay:10.37,2013-07-02 04:01:00,
2013-07-02 05:02:00,55.4,51.3,29.95,NW,315,0.0,1.6,86,0.00,CLR,SKC,0.00,WeatherDisplay:10.37,2013-07-02 04:02:00,
2013-07-02 05:07:00,55.4,51.3,29.95,NW,315,0.0,1.6,86,0.00,CLR,SKC,0.00,WeatherDisplay:10.37,2013-07-02 04:07:00,
2013-07-02 05:12:00,55.4,51.3,29.95,South,180,0.0,1.6,86,0.00,CLR,SKC,0.00,WeatherDisplay:10.37,2013-07-02 04:12:00,
2013-07-02 05:17:00,55.4,51.3,29.95,South,180,0.0,1.6,86,0.00,CLR,SKC,0.00,WeatherDisplay:10.37,2013-07-02 04:17:00,
2013-07-02 05:22:00,55.4,51.3,29.95,NW,315,0.7,1.6,86,0.00,CLR,SKC,0.00,WeatherDisplay:10.37,2013-07-02 04:22:00,
2013-07-02 05:27:00,55.4,51.3,29.96,North,0,0.7,2.3,86,0.00,CLR,SKC,0.00,WeatherDisplay:10.37,2013-07-02 04:27:00,
2013-07-02 05:33:00,55.2,51.1,29.96,NW,315,0.0,2.3,86,0.00,CLR,SKC,0.00,WeatherDisplay:10.37,2013-07-02 04:33:00,
2013-07-02 05:38:00,55.2,51.1,29.96,NW,315,0.0,2.3,86,0.00,CLR,SKC,0.00,WeatherDisplay:10.37,2013-07-02 04:38:00,
2013-07-02 05:43:00,55.4,51.3,29.96,North,0,0.0,1.1,86,0.00,CLR,SKC,0.00,WeatherDisplay:10.37,2013-07-02 04:43:00,
2013-07-02 05:48:00,55.4,51.3,29.96,North,0,0.0,1.1,86,0.00,CLR,SKC,0.00,WeatherDisplay:10.37,2013-07-02 04:48:00,
2013-07-02 05:53:00,55.6,51.5,29.96,NW,315,0.7,3.5,86,0.00,CLR,SKC,0.00,WeatherDisplay:10.37,2013-07-02 04:53:00,
2013-07-02 05:58:00,55.8,51.6,29.95,NW,315,0.0,2.3,86,0.00,CLR,SKC,0.00,WeatherDisplay:10.37,2013-07-02 04:58:00,
2013-07-02 06:03:00,55.8,51.3,29.95,North,0,0.0,1.1,85,0.00,CLR,SKC,0.00,WeatherDisplay:10.37,2013-07-02 05:03:00,
2013-07-02 06:08:00,55.9,51.5,29.95,NW,315,0.0,1.1,85,0.00,CLR,SKC,0.00,WeatherDisplay:10.37,2013-07-02 05:08:00,
2013-07-02 06:13:00,55.9,51.5,29.95,North,0,0.0,1.1,85,0.00,CLR,SKC,0.00,WeatherDisplay:10.37,2013-07-02 05:13:00,
2013-07-02 06:18:00,55.9,51.5,29.95,SE,135,0.0,0.0,85,0.00,CLR,SKC,0.00,WeatherDisplay:10.37,2013-07-02 05:18:00,
2013-07-02 06:23:00,56.1,51.7,29.95,North,0,0.0,0.0,85,0.00,CLR,SKC,0.00,WeatherDisplay:10.37,2013-07-02 05:23:00,
2013-07-02 06:28:00,56.1,51.7,29.95,North,0,0.0,0.0,85,0.00,CLR,SKC,0.00,WeatherDisplay:10.37,2013-07-02 05:28:00,
2013-07-02 06:33:00,56.3,51.5,29.95,North,0,0.0,1.1,84,0.00,CLR,SKC,0.00,WeatherDisplay:10.37,2013-07-02 05:33:00,
2013-07-02 06:38:00,56.3,51.5,29.95,NE,45,0.0,0.0,84,0.00,CLR,SKC,0.00,WeatherDisplay:10.37,2013-07-02 05:38:00,
2013-07-02 06:43:00,56.5,51.7,29.95,SE,135,0.0,1.1,84,0.00,CLR,SKC,0.00,WeatherDisplay:10.37,2013-07-02 05:43:00,
2013-07-02 06:48:00,56.7,51.9,29.95,SE,135,0.0,1.1,84,0.00,CLR,SKC,0.00,WeatherDisplay:10.37,2013-07-02 05:48:00,
2013-07-02 06:53:00,56.7,51.9,29.94,SE,135,0.0,0.0,84,0.00,CLR,SKC,0.00,WeatherDisplay:10.37,2013-07-02 05:53:00,
2013-07-02 06:58:00,56.8,52.4,29.94,NW,315,0.0,0.0,85,0.00,CLR,SKC,0.00,WeatherDisplay:10.37,2013-07-02 05:58:00,
2013-07-02 07:03:00,56.8,52.1,29.94,SE,135,0.0,0.0,84,0.00,CLR,SKC,0.00,WeatherDisplay:10.37,2013-07-02 06:03:00,
2013-07-02 07:08:00,57.0,52.2,29.94,NW,315,0.7,3.1,84,0.00,CLR,SKC,0.00,WeatherDisplay:10.37,2013-07-02 06:08:00,
2013-07-02 07:13:00,57.0,51.9,29.95,SE,135,0.0,3.5,83,0.00,CLR,SKC,0.00,WeatherDisplay:10.37,2013-07-02 06:13:00,
2013-07-02 07:18:00,57.4,52.3,29.94,NE,45,0.0,1.1,83,0.00,CLR,SKC,0.00,WeatherDisplay:10.37,2013-07-02 06:18:00,
2013-07-02 07:23:00,57.4,52.3,29.94,South,180,0.0,2.3,83,0.00,CLR,SKC,0.00,WeatherDisplay:10.37,2013-07-02 06:23:00,
2013-07-02 07:28:00,57.4,52.3,29.94,South,180,0.0,1.1,83,0.00,CLR,SKC,0.00,WeatherDisplay:10.37,2013-07-02 06:28:00,
2013-07-02 07:33:00,57.7,52.9,29.94,SE,135,0.0,1.1,84,0.00,CLR,SKC,0.00,WeatherDisplay:10.37,2013-07-02 06:33:00,
2013-07-02 07:38:00,57.7,52.9,29.94,East,90,0.0,0.0,84,0.00,CLR,SKC,0.00,WeatherDisplay:10.37,2013-07-02 06:38:00,
2013-07-02 07:43:00,58.3,52.8,29.94,SSE,158,0.0,2.3,82,0.00,CLR,SKC,0.00,WeatherDisplay:10.37,2013-07-02 06:43:00,
2013-07-02 07:48:00,58.5,53.0,29.94,South,180,0.0,3.5,82,0.00,CLR,SKC,0.00,WeatherDisplay:10.37,2013-07-02 06:48:00,
2013-07-02 07:53:00,58.6,53.2,29.93,NW,315,0.0,0.0,82,0.00,CLR,SKC,0.00,WeatherDisplay:10.37,2013-07-02 06:53:00,
2013-07-02 07:58:00,59.0,52.8,29.93,West,270,0.0,1.6,80,0.00,CLR,SKC,0.00,WeatherDisplay:10.37,2013-07-02 06:58:00,
2013-07-02 08:03:00,59.0,52.8,29.93,East,90,0.0,2.3,80,0.00,CLR,SKC,0.00,WeatherDisplay:10.37,2013-07-02 07:03:00,
2013-07-02 08:08:00,59.0,52.8,29.93,South,180,0.7,2.3,80,0.00,CLR,SKC,0.00,WeatherDisplay:10.37,2013-07-02 07:08:00,
2013-07-02 08:13:00,59.0,52.8,29.93,East,90,0.0,2.3,80,0.00,CLR,SKC,0.00,WeatherDisplay:10.37,2013-07-02 07:13:00,
2013-07-02 08:18:00,59.0,53.2,29.92,SE,135,1.6,3.1,81,0.00,CLR,SKC,0.00,WeatherDisplay:10.37,2013-07-02 07:18:00,
2013-07-02 08:23:00,59.0,53.2,29.92,South,180,0.7,3.5,81,0.00,CLR,SKC,0.00,WeatherDisplay:10.37,2013-07-02 07:23:00,
2013-07-02 08:28:00,59.0,53.2,29.92,South,180,0.7,3.1,81,0.00,CLR,SKC,0.00,WeatherDisplay:10.37,2013-07-02 07:28:00,
2013-07-02 08:33:00,59.0,52.8,29.92,SE,135,0.7,3.5,80,0.00,CLR,SKC,0.00,WeatherDisplay:10.37,2013-07-02 07:33:00,
2013-07-02 08:38:00,59.2,53.0,29.92,South,180,0.7,3.5,80,0.00,CLR,SKC,0.00,WeatherDisplay:10.37,2013-07-02 07:38:00,
2013-07-02 08:43:00,59.7,53.2,29.93,SE,135,1.6,4.5,79,0.00,CLR,SKC,0.00,WeatherDisplay:10.37,2013-07-02 07:43:00,
2013-07-02 08:48:00,59.5,52.7,29.92,East,90,0.7,4.6,78,0.00,CLR,SKC,0.00,WeatherDisplay:10.37,2013-07-02 07:48:00,
2013-07-02 08:53:00,59.5,52.7,29.92,SE,135,0.0,3.5,78,0.00,CLR,SKC,0.00,WeatherDisplay:10.37,2013-07-02 07:53:00,
2013-07-02 08:58:00,59.7,53.2,29.91,SE,135,0.0,2.3,79,0.00,CLR,SKC,0.00,WeatherDisplay:10.37,2013-07-02 07:58:00,
2013-07-02 09:03:00,59.7,53.2,29.91,SE,135,0.0,0.0,79,0.00,CLR,SKC,0.00,WeatherDisplay:10.37,2013-07-02 08:03:00,
2013-07-02 09:08:00,59.9,53.0,29.91,SE,135,0.7,3.8,78,0.00,CLR,SKC,0.00,WeatherDisplay:10.37,2013-07-02 08:08:00,
2013-07-02 09:13:00,59.9,53.0,29.91,South,180,0.7,3.5,78,0.00,CLR,SKC,0.00,WeatherDisplay:10.37,2013-07-02 08:13:00,
2013-07-02 09:18:00,59.7,52.5,29.91,SSE,158,1.6,3.5,77,0.00,CLR,SKC,0.00,WeatherDisplay:10.37,2013-07-02 08:18:00,
2013-07-02 09:23:00,59.7,52.5,29.91,South,180,3.1,7.6,77,0.00,CLR,SKC,0.00,WeatherDisplay:10.37,2013-07-02 08:23:00,
2013-07-02 09:28:00,59.7,52.5,29.92,SE,135,0.7,8.1,77,0.00,CLR,SKC,0.00,WeatherDisplay:10.37,2013-07-02 08:28:00,
2013-07-02 09:33:00,59.7,52.5,29.91,SE,135,2.2,4.6,77,0.00,CLR,SKC,0.00,WeatherDisplay:10.37,2013-07-02 08:33:00,
2013-07-02 09:38:00,59.9,52.3,29.91,East,90,0.7,4.6,76,0.00,CLR,SKC,0.00,WeatherDisplay:10.37,2013-07-02 08:38:00,
2013-07-02 09:43:00,59.9,52.0,29.92,NE,45,0.7,3.8,75,0.00,CLR,SKC,0.00,WeatherDisplay:10.37,2013-07-02 08:43:00,
2013-07-02 09:48:00,60.1,52.1,29.92,SE,135,0.7,3.8,75,0.00,CLR,SKC,0.00,WeatherDisplay:10.37,2013-07-02 08:48:00,
2013-07-02 09:53:00,59.9,52.0,29.92,South,180,1.6,5.8,75,0.00,CLR,SKC,0.00,WeatherDisplay:10.37,2013-07-02 08:53:00,
2013-07-02 09:58:00,59.9,52.3,29.91,NW,315,1.6,3.8,76,0.00,CLR,SKC,0.00,WeatherDisplay:10.37,2013-07-02 08:58:00,
2013-07-02 10:03:00,60.1,52.5,29.91,North,0,0.0,3.5,76,0.00,CLR,SKC,0.00,WeatherDisplay:10.37,2013-07-02 09:03:00,
2013-07-02 10:08:00,60.3,52.3,29.91,SE,135,1.6,3.5,75,0.00,CLR,SKC,0.00,WeatherDisplay:10.37,2013-07-02 09:08:00,
2013-07-02 10:13:00,60.1,52.1,29.91,SE,135,1.6,3.8,75,0.00,CLR,SKC,0.00,WeatherDisplay:10.37,2013-07-02 09:13:00,
2013-07-02 10:18:00,60.3,52.3,29.91,West,270,0.0,3.5,75,0.00,CLR,SKC,0.00,WeatherDisplay:10.37,2013-07-02 09:18:00,
2013-07-02 10:23:00,60.3,52.3,29.91,SE,135,0.0,3.5,75,0.00,CLR,SKC,0.00,WeatherDisplay:10.37,2013-07-02 09:23:00,
2013-07-02 10:29:00,60.3,51.9,29.91,SE,135,1.6,3.8,74,0.00,CLR,SKC,0.00,WeatherDisplay:10.37,2013-07-02 09:29:00,
2013-07-02 10:34:00,60.3,52.3,29.91,South,180,0.7,4.6,75,0.00,CLR,SKC,0.00,WeatherDisplay:10.37,2013-07-02 09:34:00,
2013-07-02 10:39:00,60.3,52.3,29.91,SE,135,3.8,8.1,75,0.00,CLR,SKC,0.00,WeatherDisplay:10.37,2013-07-02 09:39:00,
2013-07-02 10:44:00,60.1,52.1,29.90,East,90,1.6,8.1,75,0.00,CLR,SKC,0.00,WeatherDisplay:10.37,2013-07-02 09:44:00,
2013-07-02 10:49:00,60.1,52.5,29.90,South,180,0.7,4.6,76,0.00,CLR,SKC,0.00,WeatherDisplay:10.37,2013-07-02 09:49:00,
2013-07-02 10:54:00,60.3,52.7,29.90,SE,135,2.2,5.4,76,0.00,CLR,SKC,0.00,WeatherDisplay:10.37,2013-07-02 09:54:00,
2013-07-02 10:59:00,60.1,52.5,29.89,SSE,158,3.8,7.6,76,0.00,CLR,SKC,0.00,WeatherDisplay:10.37,2013-07-02 09:59:00,
2013-07-02 11:04:00,60.1,52.5,29.89,South,180,0.7,8.1,76,0.00,CLR,SKC,0.00,WeatherDisplay:10.37,2013-07-02 10:04:00,
2013-07-02 11:09:00,60.4,52.5,29.88,SE,135,2.2,5.8,75,0.00,CLR,SKC,0.00,WeatherDisplay:10.37,2013-07-02 10:09:00,
2013-07-02 11:14:00,60.4,52.5,29.88,SE,135,2.2,5.4,75,0.00,CLR,SKC,0.00,WeatherDisplay:10.37,2013-07-02 10:14:00,
2013-07-02 11:19:00,60.8,52.8,29.88,South,180,2.2,5.8,75,0.00,CLR,SKC,0.00,WeatherDisplay:10.37,2013-07-02 10:19:00,
2013-07-02 11:24:00,60.8,52.8,29.88,South,180,2.2,5.8,75,0.00,CLR,SKC,0.00,WeatherDisplay:10.37,2013-07-02 10:24:00,
2013-07-02 11:29:00,61.3,53.3,29.87,South,180,0.0,5.8,75,0.00,CLR,SKC,0.00,WeatherDisplay:10.37,2013-07-02 10:29:00,
2013-07-02 11:34:00,61.3,53.3,29.88,SE,135,0.7,3.5,75,0.00,CLR,SKC,0.00,WeatherDisplay:10.37,2013-07-02 10:34:00,
2013-07-02 11:39:00,61.7,53.0,29.87,NE,45,0.0,3.5,73,0.00,CLR,SKC,0.00,WeatherDisplay:10.37,2013-07-02 10:39:00,
2013-07-02 11:44:00,61.7,53.0,29.87,SE,135,0.7,3.5,73,0.00,CLR,SKC,0.00,WeatherDisplay:10.37,2013-07-02 10:44:00,
2013-07-02 11:49:00,62.1,52.9,29.87,SSE,158,1.6,6.0,72,0.00,CLR,SKC,0.00,WeatherDisplay:10.37,2013-07-02 10:49:00,
2013-07-02 11:54:00,62.1,52.9,29.87,WNW,292,2.2,5.8,72,0.00,CLR,SKC,0.00,WeatherDisplay:10.37,2013-07-02 10:54:00,
2013-07-02 11:59:00,61.9,52.8,29.88,SE,135,1.6,5.8,72,0.00,CLR,SKC,0.00,WeatherDisplay:10.37,2013-07-02 10:59:00,
2013-07-02 12:04:00,61.9,52.8,29.88,South,180,1.6,3.8,72,0.00,CLR,SKC,0.00,WeatherDisplay:10.37,2013-07-02 11:04:00,
2013-07-02 12:09:00,62.4,53.3,29.87,SE,135,1.6,3.8,72,0.00,CLR,SKC,0.00,WeatherDisplay:10.37,2013-07-02 11:09:00,
2013-07-02 12:14:00,62.6,53.1,29.87,North,0,1.6,4.6,71,0.00,CLR,SKC,0.00,WeatherDisplay:10.37,2013-07-02 11:14:00,
2013-07-02 12:19:00,62.8,53.6,29.87,SE,135,2.2,5.8,72,0.00,CLR,SKC,0.00,WeatherDisplay:10.37,2013-07-02 11:19:00,
2013-07-02 12:24:00,62.8,53.6,29.87,SE,135,2.2,5.8,72,0.00,CLR,SKC,0.00,WeatherDisplay:10.37,2013-07-02 11:24:00,
2013-07-02 12:29:00,63.0,53.8,29.86,SE,135,3.8,6.0,72,0.00,CLR,SKC,0.00,WeatherDisplay:10.37,2013-07-02 11:29:00,
2013-07-02 12:34:00,63.1,54.0,29.86,South,180,1.6,5.8,72,0.00,CLR,SKC,0.00,WeatherDisplay:10.37,2013-07-02 11:34:00,
2013-07-02 12:39:00,63.0,53.4,29.85,SE,135,2.2,6.0,71,0.00,CLR,SKC,0.00,WeatherDisplay:10.37,2013-07-02 11:39:00,
2013-07-02 12:44:00,62.8,53.6,29.85,WSW,248,3.8,8.3,72,0.00,CLR,SKC,0.00,WeatherDisplay:10.37,2013-07-02 11:44:00,
2013-07-02 12:49:00,62.8,54.0,29.84,South,180,1.6,8.1,73,0.00,CLR,SKC,0.00,WeatherDisplay:10.37,2013-07-02 11:49:00,
2013-07-02 12:54:00,62.8,54.0,29.84,West,270,1.6,6.0,73,0.00,CLR,SKC,0.00,WeatherDisplay:10.37,2013-07-02 11:54:00,
2013-07-02 12:59:00,63.0,54.2,29.84,SE,135,0.7,5.8,73,0.00,CLR,SKC,0.00,WeatherDisplay:10.37,2013-07-02 11:59:00,
2013-07-02 13:04:00,63.1,54.0,29.84,South,180,2.2,3.8,72,0.00,CLR,SKC,0.00,WeatherDisplay:10.37,2013-07-02 12:04:00,
2013-07-02 13:09:00,62.6,54.2,29.84,South,180,1.6,6.9,74,0.00,CLR,SKC,0.00,WeatherDisplay:10.37,2013-07-02 12:09:00,
2013-07-02 13:14:00,62.6,54.2,29.84,South,180,1.6,6.9,74,0.00,CLR,SKC,0.00,WeatherDisplay:10.37,2013-07-02 12:14:00,
2013-07-02 13:19:00,62.8,54.4,29.84,WSW,248,1.6,5.8,74,0.00,CLR,SKC,0.00,WeatherDisplay:10.37,2013-07-02 12:19:00,
2013-07-02 13:24:00,62.8,54.4,29.84,SE,135,0.7,5.8,74,0.00,CLR,SKC,0.00,WeatherDisplay:10.37,2013-07-02 12:24:00,
2013-07-02 13:29:00,63.0,53.4,29.83,SE,135,2.2,4.6,71,0.00,CLR,SKC,0.00,WeatherDisplay:10.37,2013-07-02 12:29:00,
2013-07-02 13:34:00,63.0,53.4,29.83,South,180,3.8,6.0,71,0.00,CLR,SKC,0.00,WeatherDisplay:10.37,2013-07-02 12:34:00,
2013-07-02 13:39:00,63.0,53.8,29.83,South,180,2.2,6.9,72,0.00,CLR,SKC,0.00,WeatherDisplay:10.37,2013-07-02 12:39:00,
2013-07-02 13:44:00,63.0,53.8,29.83,SE,135,3.8,6.9,72,0.00,CLR,SKC,0.00,WeatherDisplay:10.37,2013-07-02 12:44:00,
2013-07-02 13:49:00,62.8,54.7,29.83,WSW,248,0.7,4.6,75,0.00,CLR,SKC,0.00,WeatherDisplay:10.37,2013-07-02 12:49:00,
2013-07-02 13:54:00,62.8,54.7,29.83,WSW,248,0.7,4.6,75,0.00,CLR,SKC,0.00,WeatherDisplay:10.37,2013-07-02 12:54:00,
2013-07-02 13:59:00,62.6,54.2,29.83,South,180,1.6,5.8,74,0.00,CLR,SKC,0.00,WeatherDisplay:10.37,2013-07-02 12:59:00,
2013-07-02 14:04:00,62.6,54.2,29.83,South,180,1.6,5.8,74,0.00,CLR,SKC,0.00,WeatherDisplay:10.37,2013-07-02 13:04:00,
2013-07-02 14:09:00,62.4,54.8,29.83,South,180,0.7,4.6,76,0.00,CLR,SKC,0.00,WeatherDisplay:10.37,2013-07-02 13:09:00,
2013-07-02 14:14:00,62.4,54.8,29.83,South,180,0.7,4.6,76,0.00,CLR,SKC,0.00,WeatherDisplay:10.37,2013-07-02 13:14:00,
2013-07-02 14:19:00,62.8,54.7,29.82,SE,135,3.8,6.9,75,0.00,CLR,SKC,0.00,WeatherDisplay:10.37,2013-07-02 13:19:00,
2013-07-02 14:24:00,62.8,54.7,29.82,SE,135,3.8,6.9,75,0.00,CLR,SKC,0.00,WeatherDisplay:10.37,2013-07-02 13:24:00,
2013-07-02 14:29:00,63.3,54.5,29.82,WSW,248,1.6,3.8,73,0.00,CLR,SKC,0.00,WeatherDisplay:10.37,2013-07-02 13:29:00,
2013-07-02 14:34:00,63.3,54.5,29.82,WSW,248,1.6,3.8,73,0.00,CLR,SKC,0.00,WeatherDisplay:10.37,2013-07-02 13:34:00,
2013-07-02 14:39:00,64.0,54.8,29.82,South,180,1.6,5.8,72,0.00,CLR,SKC,0.00,WeatherDisplay:10.37,2013-07-02 13:39:00,
2013-07-02 14:44:00,64.0,54.1,29.82,NE,45,1.6,5.8,70,0.00,CLR,SKC,0.00,WeatherDisplay:10.37,2013-07-02 13:44:00,
2013-07-02 14:49:00,63.9,52.7,29.81,SE,135,4.5,11.5,67,0.00,CLR,SKC,0.00,WeatherDisplay:10.37,2013-07-02 13:49:00,
2013-07-02 14:54:00,63.9,52.3,29.81,SE,135,3.1,11.5,66,0.00,CLR,SKC,0.00,WeatherDisplay:10.37,2013-07-02 13:54:00,
2013-07-02 14:59:00,64.0,52.0,29.81,South,180,0.7,8.1,65,0.00,CLR,SKC,0.00,WeatherDisplay:10.37,2013-07-02 13:59:00,
2013-07-02 15:04:00,64.0,52.0,29.81,SE,135,1.6,5.8,65,0.00,CLR,SKC,0.00,WeatherDisplay:10.37,2013-07-02 14:04:00,
2013-07-02 15:09:00,64.0,51.2,29.81,SE,135,3.1,6.9,63,0.00,CLR,SKC,0.00,WeatherDisplay:10.37,2013-07-02 14:09:00,
2013-07-02 15:14:00,64.0,51.2,29.81,WSW,248,3.1,7.6,63,0.00,CLR,SKC,0.00,WeatherDisplay:10.37,2013-07-02 14:14:00,
2013-07-02 15:20:00,64.2,51.4,29.81,South,180,2.2,8.1,63,0.00,CLR,SKC,0.00,WeatherDisplay:10.37,2013-07-02 14:20:00,
2013-07-02 15:25:00,64.0,51.2,29.81,WSW,248,0.7,5.8,63,0.00,CLR,SKC,0.00,WeatherDisplay:10.37,2013-07-02 14:25:00,
2013-07-02 15:30:00,64.4,51.1,29.81,South,180,6.0,9.2,62,0.00,CLR,SKC,0.00,WeatherDisplay:10.37,2013-07-02 14:30:00,
2013-07-02 15:35:00,64.2,50.5,29.81,South,180,5.4,9.2,61,0.00,CLR,SKC,0.00,WeatherDisplay:10.37,2013-07-02 14:35:00,
2013-07-02 15:40:00,64.4,51.1,29.80,SE,135,3.1,8.1,62,0.00,CLR,SKC,0.00,WeatherDisplay:10.37,2013-07-02 14:40:00,
2013-07-02 15:45:00,64.4,51.1,29.80,SE,135,3.1,8.1,62,0.00,CLR,SKC,0.00,WeatherDisplay:10.37,2013-07-02 14:45:00,
2013-07-02 15:50:00,64.6,51.3,29.80,SE,135,3.8,9.2,62,0.00,CLR,SKC,0.00,WeatherDisplay:10.37,2013-07-02 14:50:00,
2013-07-02 15:55:00,64.6,51.3,29.80,SE,135,3.8,9.2,62,0.00,CLR,SKC,0.00,WeatherDisplay:10.37,2013-07-02 14:55:00,
2013-07-02 16:00:00,64.4,52.0,29.81,South,180,3.1,8.1,64,0.00,CLR,SKC,0.00,WeatherDisplay:10.37,2013-07-02 15:00:00,
2013-07-02 16:05:00,64.4,52.0,29.81,South,180,3.1,8.1,64,0.00,CLR,SKC,0.00,WeatherDisplay:10.37,2013-07-02 15:05:00,
2013-07-02 16:10:00,64.2,52.6,29.80,East,90,4.5,6.9,66,0.00,CLR,SKC,0.00,WeatherDisplay:10.37,2013-07-02 15:10:00,
2013-07-02 16:15:00,64.2,52.6,29.80,East,90,4.5,6.9,66,0.00,CLR,SKC,0.00,WeatherDisplay:10.37,2013-07-02 15:15:00,
2013-07-02 16:20:00,63.7,53.3,29.78,SSE,161,3.0,9.0,69,0.00,CLR,SKC,0.00,WeatherDisplay:10.37,2013-07-02 15:20:00,
2013-07-02 16:25:00,63.7,53.3,29.78,WSW,248,2.2,8.1,69,0.00,CLR,SKC,0.00,WeatherDisplay:10.37,2013-07-02 15:25:00,
2013-07-02 16:30:00,63.7,54.5,29.77,South,180,1.6,8.1,72,0.00,CLR,SKC,0.00,WeatherDisplay:10.37,2013-07-02 15:30:00,
2013-07-02 16:35:00,63.7,54.5,29.77,South,180,1.6,8.1,72,0.00,CLR,SKC,0.00,WeatherDisplay:10.37,2013-07-02 15:35:00,
2013-07-02 16:40:00,63.3,54.9,29.77,South,180,2.2,5.8,74,0.00,CLR,SKC,0.00,WeatherDisplay:10.37,2013-07-02 15:40:00,
2013-07-02 16:45:00,63.3,54.9,29.77,South,180,2.2,5.8,74,0.00,CLR,SKC,0.00,WeatherDisplay:10.37,2013-07-02 15:45:00,
2013-07-02 16:50:00,63.3,54.5,29.77,SE,135,3.1,6.9,73,0.00,CLR,SKC,0.00,WeatherDisplay:10.37,2013-07-02 15:50:00,
2013-07-02 16:55:00,63.3,54.5,29.77,SE,135,3.1,6.9,73,0.00,CLR,SKC,0.00,WeatherDisplay:10.37,2013-07-02 15:55:00,
2013-07-02 17:00:00,63.5,54.3,29.77,South,180,3.8,8.1,72,0.00,CLR,SKC,0.00,WeatherDisplay:10.37,2013-07-02 16:00:00,
2013-07-02 17:05:00,63.5,54.3,29.77,South,180,3.8,8.1,72,0.00,CLR,SKC,0.00,WeatherDisplay:10.37,2013-07-02 16:05:00,
2013-07-02 17:10:00,62.6,53.4,29.77,WSW,248,0.7,10.4,72,0.00,CLR,SKC,0.00,WeatherDisplay:10.37,2013-07-02 16:10:00,
2013-07-02 17:15:00,62.6,53.4,29.77,WSW,248,0.7,10.4,72,0.00,CLR,SKC,0.00,WeatherDisplay:10.37,2013-07-02 16:15:00,
2013-07-02 17:20:00,62.1,52.9,29.77,South,180,3.8,8.1,72,0.00,CLR,SKC,0.00,WeatherDisplay:10.37,2013-07-02 16:20:00,
2013-07-02 17:25:00,62.1,52.9,29.77,South,180,3.8,8.1,72,0.00,CLR,SKC,0.00,WeatherDisplay:10.37,2013-07-02 16:25:00,
2013-07-02 17:30:00,62.1,53.7,29.76,South,180,0.7,6.9,74,0.00,CLR,SKC,0.00,WeatherDisplay:10.37,2013-07-02 16:30:00,
2013-07-02 17:35:00,62.1,53.7,29.76,South,180,0.7,6.9,74,0.00,CLR,SKC,0.00,WeatherDisplay:10.37,2013-07-02 16:35:00,
2013-07-02 17:40:00,61.7,53.7,29.75,South,180,4.5,11.4,75,0.00,CLR,SKC,0.00,WeatherDisplay:10.37,2013-07-02 16:40:00,
2013-07-02 17:45:00,61.7,53.7,29.75,South,180,4.5,11.4,75,0.00,CLR,SKC,0.00,WeatherDisplay:10.37,2013-07-02 16:45:00,
2013-07-02 17:50:00,61.9,53.9,29.75,South,180,2.2,6.9,75,0.00,CLR,SKC,0.00,WeatherDisplay:10.37,2013-07-02 16:50:00,
2013-07-02 17:55:00,61.9,53.9,29.75,South,180,2.2,6.9,75,0.00,CLR,SKC,0.00,WeatherDisplay:10.37,2013-07-02 16:55:00,
2013-07-02 18:00:00,61.7,54.1,29.75,South,180,3.1,8.1,76,0.00,CLR,SKC,0.00,WeatherDisplay:10.37,2013-07-02 17:00:00,
2013-07-02 18:05:00,61.7,54.1,29.75,South,180,3.1,8.1,76,0.00,CLR,SKC,0.00,WeatherDisplay:10.37,2013-07-02 17:05:00,
2013-07-02 18:10:00,61.5,54.2,29.74,West,270,0.7,5.8,77,0.00,CLR,SKC,0.00,WeatherDisplay:10.37,2013-07-02 17:10:00,
2013-07-02 18:15:00,61.5,54.2,29.74,West,270,0.7,5.8,77,0.00,CLR,SKC,0.00,WeatherDisplay:10.37,2013-07-02 17:15:00,
2013-07-02 18:20:00,61.2,54.2,29.74,WSW,248,3.8,8.1,78,0.00,CLR,SKC,0.00,WeatherDisplay:10.37,2013-07-02 17:20:00,
2013-07-02 18:25:00,61.2,54.2,29.74,WSW,248,3.8,8.1,78,0.00,CLR,SKC,0.00,WeatherDisplay:10.37,2013-07-02 17:25:00,
2013-07-02 18:30:00,61.2,54.9,29.74,ESE,112,2.2,5.8,80,0.00,CLR,SKC,0.00,WeatherDisplay:10.37,2013-07-02 17:30:00,
2013-07-02 18:35:00,61.2,54.9,29.74,ESE,112,2.2,5.8,80,0.00,CLR,SKC,0.00,WeatherDisplay:10.37,2013-07-02 17:35:00,
2013-07-02 18:40:00,61.2,54.9,29.73,SE,135,3.1,9.2,80,0.00,CLR,SKC,0.00,WeatherDisplay:10.37,2013-07-02 17:40:00,
2013-07-02 18:45:00,61.2,54.9,29.73,SE,135,3.1,9.2,80,0.00,CLR,SKC,0.00,WeatherDisplay:10.37,2013-07-02 17:45:00,
2013-07-02 18:50:00,61.3,55.5,29.73,SE,135,3.1,6.0,81,0.00,CLR,SKC,0.00,WeatherDisplay:10.37,2013-07-02 17:50:00,
2013-07-02 18:55:00,61.3,55.5,29.73,SE,135,3.1,6.0,81,0.00,CLR,SKC,0.00,WeatherDisplay:10.37,2013-07-02 17:55:00,
2013-07-02 19:00:00,61.2,55.3,29.73,South,180,3.1,5.4,81,0.00,CLR,SKC,0.00,WeatherDisplay:10.37,2013-07-02 18:00:00,
2013-07-02 19:05:00,61.2,55.3,29.73,South,180,3.1,5.4,81,0.00,CLR,SKC,0.00,WeatherDisplay:10.37,2013-07-02 18:05:00,
2013-07-02 19:11:00,61.2,55.3,29.73,SSW,202,4.5,8.3,81,0.00,CLR,SKC,0.00,WeatherDisplay:10.37,2013-07-02 18:11:00,
2013-07-02 19:16:00,61.2,55.3,29.73,SSW,202,4.5,8.3,81,0.00,CLR,SKC,0.00,WeatherDisplay:10.37,2013-07-02 18:16:00,
2013-07-02 19:21:00,61.0,55.1,29.73,SSE,158,2.2,8.1,81,0.00,CLR,SKC,0.00,WeatherDisplay:10.37,2013-07-02 18:21:00,
2013-07-02 19:26:00,61.0,55.1,29.73,SSE,158,2.2,8.1,81,0.00,CLR,SKC,0.00,WeatherDisplay:10.37,2013-07-02 18:26:00,
2013-07-02 19:31:00,61.0,55.1,29.73,WSW,248,2.2,8.1,81,0.00,CLR,SKC,0.00,WeatherDisplay:10.37,2013-07-02 18:31:00,
2013-07-02 19:36:00,61.0,55.1,29.73,WSW,248,2.2,8.1,81,0.00,CLR,SKC,0.00,WeatherDisplay:10.37,2013-07-02 18:36:00,
2013-07-02 19:39:00,60.8,55.3,29.72,South,180,1.6,4.6,82,0.00,CLR,SKC,0.00,WeatherDisplay:10.37,2013-07-02 18:39:00,
2013-07-02 19:41:00,60.8,55.3,29.72,South,180,1.6,4.6,82,0.00,CLR,SKC,0.00,WeatherDisplay:10.37,2013-07-02 18:41:00,
2013-07-02 19:46:00,60.8,55.3,29.72,South,180,1.6,4.6,82,0.00,CLR,SKC,0.00,WeatherDisplay:10.37,2013-07-02 18:46:00,
2013-07-02 19:55:00,60.6,55.4,29.72,South,180,2.2,6.9,83,0.00,CLR,SKC,0.00,WeatherDisplay:10.37,2013-07-02 18:55:00,
2013-07-02 20:00:00,60.4,55.6,29.72,SSE,158,3.1,8.1,84,0.00,CLR,SKC,0.00,WeatherDisplay:10.37,2013-07-02 19:00:00,
2013-07-02 20:05:00,60.4,55.6,29.72,SSE,158,3.1,8.1,84,0.00,CLR,SKC,0.00,WeatherDisplay:10.37,2013-07-02 19:05:00,
2013-07-02 20:10:00,60.3,55.4,29.71,South,180,0.7,4.6,84,0.00,CLR,SKC,0.00,WeatherDisplay:10.37,2013-07-02 19:10:00,
2013-07-02 20:15:00,60.3,55.4,29.71,South,180,0.7,4.6,84,0.00,CLR,SKC,0.00,WeatherDisplay:10.37,2013-07-02 19:15:00,
2013-07-02 20:20:00,60.3,55.4,29.71,SE,135,3.1,6.9,84,0.00,CLR,SKC,0.00,WeatherDisplay:10.37,2013-07-02 19:20:00,
2013-07-02 20:25:00,60.3,55.4,29.71,SE,135,3.1,6.9,84,0.00,CLR,SKC,0.00,WeatherDisplay:10.37,2013-07-02 19:25:00,
2013-07-02 20:30:00,60.3,55.7,29.71,West,270,1.6,4.6,85,0.00,CLR,SKC,0.00,WeatherDisplay:10.37,2013-07-02 19:30:00,
2013-07-02 20:35:00,60.3,55.7,29.71,West,270,1.6,4.6,85,0.00,CLR,SKC,0.00,WeatherDisplay:10.37,2013-07-02 19:35:00,
2013-07-02 20:40:00,60.3,55.7,29.71,SE,135,0.0,5.8,85,0.00,CLR,SKC,0.00,WeatherDisplay:10.37,2013-07-02 19:40:00,
2013-07-02 20:45:00,60.3,55.7,29.71,SE,135,0.0,5.8,85,0.00,CLR,SKC,0.00,WeatherDisplay:10.37,2013-07-02 19:45:00,
2013-07-02 20:50:00,60.3,55.7,29.70,SE,144,2.0,5.0,85,0.00,CLR,SKC,0.00,WeatherDisplay:10.37,2013-07-02 19:50:00,
2013-07-02 20:55:00,60.3,55.7,29.70,NW,315,1.6,4.6,85,0.00,CLR,SKC,0.00,WeatherDisplay:10.37,2013-07-02 19:55:00,
2013-07-02 21:00:00,60.3,56.1,29.69,NE,45,1.6,4.5,86,0.00,CLR,SKC,0.00,WeatherDisplay:10.37,2013-07-02 20:00:00,
2013-07-02 21:05:00,60.3,56.1,29.69,NE,45,1.6,4.5,86,0.00,CLR,SKC,0.00,WeatherDisplay:10.37,2013-07-02 20:05:00,
2013-07-02 21:10:00,60.3,56.1,29.69,SE,135,3.8,11.4,86,0.00,CLR,SKC,0.00,WeatherDisplay:10.37,2013-07-02 20:10:00,
2013-07-02 21:15:00,60.3,56.1,29.69,SE,135,3.8,11.4,86,0.00,CLR,SKC,0.00,WeatherDisplay:10.37,2013-07-02 20:15:00,
2013-07-02 21:20:00,60.1,55.9,29.70,SSE,158,0.0,5.8,86,0.00,CLR,SKC,0.00,WeatherDisplay:10.37,2013-07-02 20:20:00,
2013-07-02 21:25:00,60.1,55.9,29.70,SSE,158,0.0,5.8,86,0.00,CLR,SKC,0.00,WeatherDisplay:10.37,2013-07-02 20:25:00,
2013-07-02 21:30:00,60.1,56.2,29.70,SE,135,0.0,3.5,87,0.00,CLR,SKC,0.00,WeatherDisplay:10.37,2013-07-02 20:30:00,
2013-07-02 21:35:00,60.1,56.2,29.70,SE,135,0.0,3.5,87,0.00,CLR,SKC,0.00,WeatherDisplay:10.37,2013-07-02 20:35:00,
2013-07-02 21:40:00,60.1,56.2,29.70,South,180,1.6,4.6,87,0.00,CLR,SKC,0.00,WeatherDisplay:10.37,2013-07-02 20:40:00,
2013-07-02 21:45:00,60.1,56.2,29.70,South,180,1.6,4.6,87,0.00,CLR,SKC,0.00,WeatherDisplay:10.37,2013-07-02 20:45:00,
2013-07-02 22:00:00,60.1,56.5,29.69,South,180,2.2,5.4,88,0.00,CLR,SKC,0.00,WeatherDisplay:10.37,2013-07-02 21:00:00,
2013-07-02 22:05:00,60.1,56.5,29.69,South,180,2.2,5.4,88,0.00,CLR,SKC,0.00,WeatherDisplay:10.37,2013-07-02 21:05:00,
2013-07-02 22:10:00,60.1,56.5,29.69,SE,135,1.6,5.8,88,0.00,CLR,SKC,0.00,WeatherDisplay:10.37,2013-07-02 21:10:00,
2013-07-02 22:15:00,60.1,56.5,29.69,SE,135,1.6,5.8,88,0.00,CLR,SKC,0.00,WeatherDisplay:10.37,2013-07-02 21:15:00,
2013-07-02 22:20:00,59.9,56.3,29.68,SE,135,4.5,8.1,88,0.00,CLR,SKC,0.00,WeatherDisplay:10.37,2013-07-02 21:20:00,
2013-07-02 22:25:00,59.9,56.3,29.68,SE,135,4.5,8.1,88,0.00,CLR,SKC,0.00,WeatherDisplay:10.37,2013-07-02 21:25:00,
2013-07-02 22:30:00,59.9,56.6,29.69,West,270,3.1,10.4,89,0.00,CLR,SKC,0.00,WeatherDisplay:10.37,2013-07-02 21:30:00,
2013-07-02 22:35:00,59.9,56.6,29.69,West,270,3.1,10.4,89,0.00,CLR,SKC,0.00,WeatherDisplay:10.37,2013-07-02 21:35:00,
2013-07-02 22:40:00,59.9,56.6,29.67,SE,135,0.7,8.1,89,0.00,CLR,SKC,0.00,WeatherDisplay:10.37,2013-07-02 21:40:00,
2013-07-02 22:45:00,59.9,56.6,29.67,SE,135,0.7,8.1,89,0.00,CLR,SKC,0.00,WeatherDisplay:10.37,2013-07-02 21:45:00,
2013-07-02 22:50:00,59.7,56.8,29.67,NW,315,2.2,8.1,90,0.00,CLR,SKC,0.00,WeatherDisplay:10.37,2013-07-02 21:50:00,
2013-07-02 22:55:00,59.7,56.8,29.67,NW,315,2.2,8.1,90,0.00,CLR,SKC,0.00,WeatherDisplay:10.37,2013-07-02 21:55:00,
2013-07-02 23:00:00,59.7,56.8,29.67,SSE,149,2.0,9.0,90,0.00,CLR,SKC,0.00,WeatherDisplay:10.37,2013-07-02 22:00:00,
2013-07-02 23:05:00,59.7,56.8,29.67,SE,135,1.6,8.1,90,0.00,CLR,SKC,0.00,WeatherDisplay:10.37,2013-07-02 22:05:00,
2013-07-02 23:10:00,59.7,57.1,29.67,North,6,0.7,4.6,91,0.00,CLR,SKC,0.00,WeatherDisplay:10.37,2013-07-02 22:10:00,
2013-07-02 23:15:00,59.7,57.1,29.67,North,6,0.7,4.6,91,0.00,CLR,SKC,0.00,WeatherDisplay:10.37,2013-07-02 22:15:00,
2013-07-02 23:20:00,59.7,57.1,29.67,NE,45,0.0,3.5,91,0.00,CLR,SKC,0.00,WeatherDisplay:10.37,2013-07-02 22:20:00,
2013-07-02 23:25:00,59.7,57.1,29.67,NE,45,0.0,3.5,91,0.00,CLR,SKC,0.00,WeatherDisplay:10.37,2013-07-02 22:25:00,
2013-07-02 23:30:00,59.9,57.3,29.66,South,180,0.0,5.8,91,0.00,CLR,SKC,0.00,WeatherDisplay:10.37,2013-07-02 22:30:00,
2013-07-02 23:35:00,59.9,57.3,29.66,South,180,0.0,5.8,91,0.00,CLR,SKC,0.00,WeatherDisplay:10.37,2013-07-02 22:35:00,
2013-07-02 23:40:00,59.9,57.3,29.66,South,180,3.1,6.0,91,0.00,CLR,SKC,0.00,WeatherDisplay:10.37,2013-07-02 22:40:00,
2013-07-02 23:45:00,59.9,57.3,29.66,South,180,3.1,6.0,91,0.00,CLR,SKC,0.00,WeatherDisplay:10.37,2013-07-02 22:45:00,
2013-07-02 23:50:00,59.7,57.4,29.66,North,0,1.6,4.6,92,0.00,CLR,SKC,0.00,WeatherDisplay:10.37,2013-07-02 22:50:00,
2013-07-02 23:55:00,59.7,57.4,29.66,North,0,1.6,4.6,92,0.00,CLR,SKC,0.00,WeatherDisplay:10.37,2013-07-02 22:55:00,